Starlink 30960

operational
NORAD ID: 58456 Int'l Des: 2023-183 Owner: SPXS Country: US Constellation: starlink
LEOCIRCULAR

Über Starlink 30960

Beschreibung wird geladen...

Live-Position

3D-Globus wird geladen...

Nächste Überflüge

Höhenverlauf

Altitude vs Time

uPlot chart will show altitude changes over time

Zweizeiliger Elementsatz

1 58456U 23183V 25351.67665073 .00091198 00000-0 27410-2 0 9995
2 58456 42.9986 63.7787 0006159 42.2308 317.9020 15.33383638115143
Epoch: 17. Dez. 2025 • Age: 19 hours

Aktueller Status

Höhe 465.0 km
Geschwindigkeit 7.64 km/s
Subsatellitenpunkt 42.86°N, 116.74°W
Startdatum 28. Nov. 2023
Alter 2 years
Typ internet

Technische Details

Klassifizierung Payload
Masse 730.00 kg
Trockenmasse 700.00 kg
Gesamtmasse 730.00 kg
Länge 0.30 m
Durchmesser 4.10 m
Spannweite 29.00 m
Form Box + pan
Hersteller SPXS
Bus-Typ Starlink V2M
Phasenstatus In Orbit
Besitzer/Staat SPXS/US

Große Konstellationen

Loading constellations...